STARLINK BA (44283 NORAD) Tracking and Keplerian Element Data

This shows tracking and keplerian element data for the satellite.

Feedback or suggestion? Click here.




ElementValue
Catalog44283
NameSTARLINK BA
Epoch Orbit237
Epoch Day158.90568048
Epoch Year2019
RAAN105.9747
Inclination52.9996
Eccentricity0.0002336
Argument of Perigee89.9235
Mean Anonmoly270.2026
Mean Motion15.18805268
Decay Rate-0.00826316
L11 44283U 19029BA 19158.90568048 -.00826316 00000-0 -42520-1 0 9998
L22 44283 52.9996 105.9747 0002336 89.9235 270.2026 15.18805268 2371

Live tracking and technical data element details for STARLINK BA (NORAD 44283). STARLINK BA can be tracked NOW for your location showing map with azimuth and elevation plus other details from your city location.

Track the satellite on the map from your city or location and see movement details for azimuth, elevation, latitude, longitude, range, height, and movement on the map or in text.







IsCatalogInMostPopularTable: catalog: 44283, numindb: 58
Update: records affected: 1



GetName: 44283 STARLINK BA

Hit Count: updated at: Sun, 21 Jul 2019 21:53:32 GMT